Powrót do katalogu

FENGYUN 1C DEB

AktywnySSO
NORAD 31782·DEBRIS·🇨🇳 China

Wystrzelony May 10, 1999 z Taiyuan Satellite Launch Center

Loading…

Następne Przeloty (najbliższe 24 godziny)

TLE

ŚwieżeSource: Space-Track

Epoka: Sep 12, 2026, 23:19 UTC

1 31782U 99025CGH 26255.97191243  .00000570  00000-0  20242-3 0  9997
2 31782  98.9297  71.8739 0077781 269.5760 243.3952 14.36843569  6077

Śledź FENGYUN 1C DEB w czasie rzeczywistym z AllMySat

Download on the App Store